Regional Weather Roundup
Issued by NWS Newport/Morehead, NC

Current Version | Previous Version | Graphics & Text | Print | Product List | Glossary Off
Versions: 1 2 3 4 5 6 7 8 9 10 11 12 13 14 15 16 17 18 19 20 21 22 23 24 25 26 27 28 29 30 31 32 33 34 35 36 37 38 39 40 41 42 43 44 45 46 47 48 49 50

000
ASUS42 KMHX 060812
RWRMHX
WEATHER ROUNDUP FOR EASTERN NORTH CAROLINA
NATIONAL WEATHER SERVICE NEWPORT/MOREHEAD CITY NC
300 AM EST FRI MAR 06 2015

NOTE: "FAIR" INDICATES FEW OR NO CLOUDS BELOW 12,000 FEET
WITH NO SIGNIFICANT WEATHER AND/OR OBSTRUCTIONS TO VISIBILITY

NCZ015>017-031-032-045>047-102-103-060900-
NORTH COAST

CITY           SKY/WX    TMP DP  RH WIND       PRES   REMARKS
EDENTON        CLOUDY    30  26  88 N12G18    30.36S
ELIZABETH CITY CLOUDY    28  22  78 N23G31    30.37S WCI  14
KITTY HAWK     CLOUDY    28  24  86 N15G25    30.34R WCI  16
MANTEO         CLOUDY    28  24  82 N18G28    30.36R WCI  16

$$

NCZ045>047-081-094-103-104-060900-
CENTRAL COAST

CITY           SKY/WX    TMP DP  RH WIND       PRES   REMARKS
FRISCO         FRZ RAIN  31  29  92 N21G35    30.30R WCI  18
SWANQUARTER      N/A     30 N/A N/A N15       30.30S WCI  19

$$

NCZ095-097-098-100-101-060900-
SOUTHERN COAST

CITY           SKY/WX    TMP DP  RH WIND       PRES   REMARKS
BEAUFORT       CLOUDY    33  32  96 N16       30.31R
CEDAR ISLAND     N/A     34 N/A N/A N22G36    30.36S
JACKSONVILLE   CLOUDY    33  30  88 N15       30.31R
PINEY ISLAND     N/A    N/A N/A N/A MISG      30.32R
WILMINGTON     CLOUDY    34  30  85 N12       30.31R


$$

NCZ011>013-027>030-043-044-078>080-089-090>093-098-060900-
COASTAL PLAIN

CITY           SKY/WX    TMP DP  RH WIND       PRES   REMARKS
AHOSKIE        MOCLDY    26  16  64 N8G18     30.41R
CLINTON        CLOUDY    33  29  84 N9G16     30.35R
ELIZABETHTOWN  CLOUDY    34  28  80 N7        30.33R
GOLDSBORO      CLOUDY    31  31  97 N20G28    30.34R WCI  19
GREENVILLE     CLOUDY    30  25  80 N16       30.38R WCI  19
HAVELOCK       CLOUDY    34  30  85 N20       30.32R
KENANSVILLE    CLOUDY    32  27  83 N15G22    30.36R
KINSTON        CLOUDY    32  26  80 N14       30.37R
NEW BERN       CLOUDY    32  28  85 N18       30.33S
RICHLANDS      CLOUDY    32  25  74 N10G22    30.33R
ROCKY MOUNT    CLOUDY    30  22  72 N14G21    30.39R WCI  19
WASHINGTON     CLOUDY    30  24  77 N15G21    30.36S WCI  19
WHITEVILLE     CLOUDY    35  28  77 N8G18     30.31S

$$

AMZ130-135-150-152-154-156-158-170-250-252-270-ANZ085-086-088-633-658-670-060900-
MARINE OBSERVATIONS

STATION/POSITION TIME  TEMP    WIND        PRES    WAVE   SWELL
                       AIR SEA DIR/SP/G            HT/PER HT/PER
                 (UTC) (F)     (DEG/KT/KT) (MB)    (FT/S) (FT/S)
CHESAPEAKE LIGHT 0700   27      10/ 28/ 32 1028.4
64 E VA BEACH    0750   34 53   10/ 29/ 35 1025.6   12/ 9   7/ 9
DUCK             0700                      1026.1
2 E DUCK         0711      35                N/A     9/ 8   2/11
10 NE DUCK       NOT AVBL
OREGON INLET     0700                      1026.2
HATTERAS CG      0700                      1025.3
CAPE LOOKOUT     0800           10/ 21/ 26 1026.0
BEAUFORT LAB     0700                      1024.8
27 SE WRIGHTSVLE NOT AVBL
5 SE WRIGHTSVLE  NOT AVBL
225 S CAPE HAT   0750   74 72  240/ 19/ 23 1018.1    7/ 8   5/ 8
41 SE CHARLESTON 0750   47 68   20/ 25/ 31 1022.3   10/ 7

$$



USA.gov is the U.S. government's official web portal to all federal, state and local government web resources and services.